Miscellaneous Local Product
Issued by NWS North Platte, NE

Home | Current Version | Previous Version | Text Only | Print | Product List | Glossary On
Versions: 1 2 3 4 5 6 7 8 9 10 11 12 13 14 15 16 17 18 19 20 21 22 23 24 25 26 27 28 29 30 31 32 33 34 35 36 37 38 39 40 41 42 43 44 45 46 47 48 49 50
000
AXUS43 KLBF 230710
MISLBF


WESTERN AND NORTH CENTRAL NEBRASKA HOURLY WEATHER ROUNDUP
NATIONAL WEATHER SERVICE NORTH PLATTE NE
200 AM CDT SUN JUL 23 2017

NOTE: "FAIR" INDICATES FEW OR NO CLOUDS BELOW 12,000 FEET WITH NO
SIGNIFICANT WEATHER AND/OR OBSTRUCTIONS TO VISIBILITY.

NOTE: STATIONS NOT REPORTING VARIABLES SUCH AS SKY/WEATHER OR
PRESSURE ARE PROVIDED BY RAWS AND APRS NETWORKS AND ARE NOT UNDER
NATIONAL WEATHER SERVICE QUALITY CONTROL.

...OBSERVATIONS IN AND NEAR THE EASTERN PANHANDLE OF NEBRASKA...

CITY           SKY/WX    TMP DP  RH WIND       PRES   REMARKS
PINE RIDGE     CLEAR     62  57  83 NE7       30.10S
GORDON         FAIR      62  57  85 CALM      30.11S
CHADRON        CLEAR     62  53  72 CALM      30.08F
ALLIANCE       CLEAR     60  45  57 W3        30.12F
SIDNEY         CLEAR     57  46  66 SW8       30.17S
CRESCENT LAKE    N/A     67  54  64 CALM        N/A
$$

...OBSERVATIONS IN NORTHERN NEBRASKA AND FAR SOUTHERN SOUTH DAKOTA...

CITY           SKY/WX    TMP DP  RH WIND       PRES   REMARKS
WINNER         FAIR      69  53  56 N5        30.01R
VALENTINE      CLEAR     71  45  39 VRB3      30.05R
THEDFORD       CLEAR     65  53  63 W5        30.07S
AINSWORTH      CLEAR     70  55  59 W6        30.02S
O`NEILL        CLEAR     67  62  84 SW6       29.99R
ORD            CLEAR     63  60  90 SW3       29.99F FOG
BROKEN BOW     CLEAR     63  61  93 CALM      30.03F
VALENTINE NWR    N/A     74  51  44 W6          N/A
HALSEY           N/A     69  50  50 CALM        N/A
BUTTE            N/A     71  63  76 NW5         N/A
CHAMBERS         N/A     68  61  77 SW5         N/A
EWING            N/A     63  62  96 CALM        N/A
$$

...OBSERVATIONS IN SOUTHWEST NEBRASKA AND FAR NORTHEAST COLORADO...

CITY           SKY/WX    TMP DP  RH WIND       PRES   REMARKS
HOLYOKE        FAIR      61  55  82 W6        30.13F
IMPERIAL       CLEAR     64  54  69 W5        30.09F
OGALLALA       CLEAR     61  52  73 CALM      30.11S
NORTH PLATTE   CLEAR     59  57  93 CALM      30.06F
MCCOOK         CLEAR     63  61  93 W3        30.04F
LEXINGTON      CLEAR     65  63  93 W5        30.04S
STAPLETON        N/A     62  56  80 CALM        N/A
GOTHENBURG       N/A     68  60  76 CALM        N/A
CALLAWAY         N/A     61  59  92 SE3         N/A
$$

...OBSERVATIONS IN CENTRAL LINCOLN COUNTY AREA...

CITY           SKY/WX    TMP DP  RH WIND       PRES   REMARKS
N.P. AIRPORT   CLEAR     59  57  93 CALM      30.06F
N.P. DOWNTOWN    N/A     65  58  77 CALM        N/A
N.P. SOUTHEAST   N/A     65  59  80 CALM        N/A
N.P. HILLCREST   N/A     69  52  54 CALM        N/A
$$

...SOME OBSERVATIONS FROM AROUND THE REGION...

CITY           SKY/WX    TMP DP  RH WIND       PRES   REMARKS
DENVER         PTCLDY    65  54  67 SE10      30.19R
LIMON          CLOUDY    59  56  89 CALM      30.23F
ASPEN          CLOUDY    60  45  57 SW7       30.37S
LARAMIE        CLOUDY    58  48  69 S9        30.34S
CASPER         CLEAR     59  36  42 N12       30.19S
CHEYENNE       CLEAR     63  48  58 W5        30.27S
SCOTTSBLUFF    CLEAR     67  50  54 E6        30.13S
GRAND ISLAND   CLEAR     66  66 100 CALM      29.99F
OMAHA          MOCLDY    72  69  90 N3        29.93S
SIOUX FALLS    CLEAR     70  64  81 NW9       29.94R
PIERRE         CLEAR     63  49  60 NE3       30.00S
RAPID CITY     CLEAR     63  44  50 NW9       30.12R
BISMARCK       CLEAR     65  55  70 NW3       30.04S
KANSAS CITY    CLOUDY    73  71  93 SE3       29.92F
HILL CITY      CLEAR     69  67  93 CALM      30.02R
WICHITA        PTCLDY    73  70  90 E9        29.93S
DODGE CITY     PTCLDY    73  64  73 N8        30.02S
OKLAHOMA CITY  PTCLDY    81  71  71 S8        29.89F
DALLAS         PTCLDY    85  72  65 S10       29.87F HX  91
AMARILLO       CLEAR     70  61  73 S3        30.06F
$$




USA.gov is the U.S. government's official web portal to all federal, state and local government web resources and services.